GFSNIL_prec_cloud_162.txt.gz
Cloud_Cover
100 100 88 84 85 97 98 100 98 77 100 95 100 100 100 100 100 100 100 100 100 100
100 98 67 44 38 33 42 90 88 91 100 100 95 100 100 100 100 100 100 100 100 100
81 54 55 55 71 86 100 100 100 100 99 100 100 100 100 100 100 100 100 100 100 100
100 84 90 80 73 46 76 100 100 100 100 99 100 100 100 100 100 100 100 100 100 100
100 100 100 98 99 78 85 97 100 100 100 100 100 90 100 100 100 100 100 100 100 100
93 98 100 100 100 100 100 100 100 100 100 100 100 100 100 100 100 100 100 100 100 100
100 100 100 99 100 100 100 100 100 100 100 100 100 100 100 100 100 100 100 100 100 100
100 99 99 97 100 100 100 100 100 100 100 100 100 100 100 100 100 100 100 100 100 100
100 100 96 100 100 100 100 100 100 100 100 100 100 100 100 100 100 100 100 100 100 100
90 95 100 100 100 100 100 100 100 100 100 100 100 100 100 100 100 100 100 100 100 100
100 98 96 100 100 100 100 100 100 100 100 100 100 100 100 100 100 100 100 100 100 100
100 100 100 100 100 100 100 100 100 100 100 100 100 100 100 100 100 100 100 100 100 100
100 100 100 100 100 100 100 100 98 95 99 99 98 92 79 53 26 9 0 0 0 0
100 100 100 100 100 100 100 99 74 50 63 30 3 0 0 0 0 1 0 0 0 0

GFSNIL_prec_cloud_165.txt.gz
Cloud_Cover
59 87 98 88 99 100 100 98 100 85 97 100 55 91 100 100 100 100 100 100 100 100
100 100 100 100 100 100 88 100 100 86 100 100 100 99 100 100 100 100 100 100 100 100
98 100 68 77 70 46 94 99 41 100 100 100 100 69 100 100 100 100 100 100 100 100
100 100 78 31 42 57 66 100 100 100 100 100 100 100 92 93 100 100 100 100 100 100
100 93 53 91 97 100 100 98 67 89 100 100 100 100 100 100 100 100 100 100 100 100
100 100 92 99 100 98 94 68 100 100 90 100 31 94 99 100 100 100 100 100 100 100
86 96 100 100 84 77 100 100 100 100 100 100 100 100 100 100 100 100 100 100 100 100
100 100 100 99 70 100 100 100 100 100 100 100 100 100 100 100 100 100 100 100 100 100
95 100 96 98 100 100 100 100 100 100 100 100 100 100 100 100 100 100 100 100 100 100
100 100 84 100 100 100 100 100 100 100 100 100 100 100 100 100 100 100 100 100 100 100
100 98 87 100 100 100 100 100 100 100 100 100 100 100 100 100 100 100 100 100 100 100
100 100 100 100 100 100 100 100 100 100 100 100 100 100 100 100 100 100 97 66 88 53
100 100 100 100 100 100 100 100 100 100 100 100 100 100 100 100 100 62 0 0 0 0
100 100 100 100 100 100 100 100 100 100 100 100 100 98 81 38 11 0 0 0 0 0

GFSNIL_prec_cloud_168.txt.gz
Cloud_Cover
0 0 0 0 0 11 95 100 100 100 68 100 13 9 100 100 61 99 100 100 100 100
69 31 5 72 92 100 98 100 100 100 100 100 100 100 100 100 76 98 100 100 100 100
84 73 92 100 88 74 37 39 98 100 100 100 100 100 100 100 90 100 100 100 100 100
97 86 97 96 74 91 84 100 100 100 100 100 100 100 95 98 100 100 100 100 98 100
100 100 85 43 68 100 98 97 100 100 100 100 100 100 100 95 99 100 100 100 100 100
99 100 100 95 89 60 100 97 64 57 100 100 100 100 92 97 100 100 100 100 100 100
98 54 92 61 24 98 63 100 100 100 100 100 93 100 92 100 100 100 100 100 100 100
99 69 93 30 51 100 100 100 100 100 100 100 100 100 100 100 100 100 100 100 100 100
100 100 96 91 99 100 100 100 100 100 100 100 100 100 100 100 100 100 100 100 100 100
99 100 100 97 100 100 100 100 100 100 100 100 100 100 100 100 100 100 100 100 100 100
100 100 100 100 100 100 100 100 100 100 100 100 100 99 100 100 100 100 100 100 100 100
100 100 100 100 100 100 100 100 100 100 100 100 100 100 100 100 100 89 59 84 10 4
100 100 100 100 100 100 100 100 100 100 100 100 100 100 100 100 62 0 0 0 0 0
100 100 100 100 100 100 100 100 100 100 99 100 83 100 100 100 16 0 0 0 0 0

GFSNIL_prec_cloud_171.txt.gz
Cloud_Cover
67 29 4 0 0 0 0 0 0 5 63 100 89 5 41 100 100 67 100 67 87 100
100 39 5 4 1 41 8 44 100 100 100 100 95 5 15 54 100 100 100 100 99 100
100 57 33 99 100 100 100 100 100 100 100 100 100 100 100 95 100 100 100 71 100 100
100 100 100 100 100 100 62 31 99 100 100 100 100 100 100 96 100 100 99 91 100 100
100 100 97 30 29 40 63 91 99 100 100 100 100 100 100 51 85 100 100 100 100 100
100 100 100 100 100 100 100 100 99 100 96 100 100 100 100 99 94 100 100 100 100 100
100 100 100 100 100 100 100 98 95 84 100 100 100 92 100 100 100 100 100 100 100 100
100 100 95 87 82 100 100 99 100 100 100 100 100 100 100 100 100 98 100 100 100 100
100 100 100 100 100 100 100 100 100 100 100 100 100 100 98 99 100 100 100 100 100 100
100 100 100 100 100 100 100 100 100 100 100 100 100 100 100 97 100 100 100 100 100 100
100 100 100 100 100 100 100 100 100 100 100 100 100 99 100 97 100 100 100 100 94 93
100 100 100 100 100 100 100 100 100 100 100 100 100 100 100 98 99 80 100 84 99 10
100 100 100 100 100 100 100 100 100 100 100 100 100 97 65 100 7 0 0 0 0 0
100 100 100 100 100 100 100 100 100 100 100 100 100 100 100 70 0 0 0 0 0 0

GFSNIL_prec_cloud_174.txt.gz
Cloud_Cover
100 100 100 99 14 5 1 8 35 59 0 39 100 98 31 74 80 100 100 54 98 100
100 100 100 100 52 5 5 7 4 0 0 100 100 28 51 97 100 98 100 100 100 100
100 100 100 100 70 27 14 82 100 100 100 100 100 100 37 54 100 100 100 100 100 100
100 100 100 100 100 100 100 100 100 100 100 100 100 100 100 66 83 96 100 100 100 97
100 100 100 100 100 85 33 59 98 100 100 100 100 100 100 100 100 100 100 100 100 100
100 100 100 100 84 100 100 100 100 100 100 100 100 100 100 78 100 100 100 100 100 100
100 100 100 100 100 100 100 78 93 100 100 100 100 100 100 100 100 99 100 80 88 100
100 100 100 100 100 100 100 100 100 100 100 100 100 100 100 100 100 100 99 99 99 100
100 100 100 100 100 100 100 100 100 100 100 100 100 100 100 96 100 100 100 100 100 100
100 100 100 100 100 100 100 100 100 100 100 100 100 98 91 99 99 100 100 100 100 100
100 100 100 100 100 100 100 100 100 100 100 100 100 100 100 99 100 97 100 96 98 86
100 100 100 100 100 100 100 100 100 100 100 100 100 100 100 73 62 39 61 51 18 0
100 100 100 100 100 100 100 100 100 100 100 100 92 100 62 12 0 0 0 0 0 0
100 100 100 100 100 100 100 100 100 100 100 100 86 100 100 51 0 0 0 0 0 0